| time (UTC) | temp F | wind direction | speed MPH | gust MPH | rain 1hr in | rain 24hr in | rain mn in | humidity % | barometer mb |
| 20260507171040 | 66 | 47 | 1.0 | 2.0 | 0.00 | 0.00 | 0.00 | 53 | 1007.8 |
| 20260507170536 | 70 | 314 | 13.0 | 16.0 | 0.00 | 0.00 | 0.00 | 50 | 1007.7 |
| 20260507170034 | 68 | 324 | 9.0 | 13.0 | 0.00 | 0.00 | 0.00 | 51 | 1007.8 |
| 20260507165529 | 68 | 349 | 5.0 | 8.0 | 0.00 | 0.00 | 0.00 | 51 | 1007.6 |
| 20260507165026 | 68 | 101 | 0.0 | 1.0 | 0.00 | 0.00 | 0.00 | 51 | 1007.7 |
| 20260507164522 | 67 | 342 | 6.0 | 8.0 | 0.00 | 0.00 | 0.00 | 51 | 1007.9 |
| 20260507164019 | 66 | 306 | 8.0 | 13.0 | 0.00 | 0.00 | 0.00 | 52 | 1008.0 |
| 20260507163516 | 67 | 346 | 3.0 | 6.0 | 0.00 | 0.00 | 0.00 | 52 | 1007.8 |
| 20260507163015 | 67 | 111 | 1.0 | 1.0 | 0.00 | 0.00 | 0.00 | 52 | 1007.8 |
| 20260507162509 | 67 | 111 | 1.0 | 2.0 | 0.00 | 0.00 | 0.00 | 52 | 1007.6 |
| 20260507162006 | 66 | 283 | 3.0 | 5.0 | 0.00 | 0.00 | 0.00 | 53 | 1007.6 |
| 20260507161503 | 67 | 348 | 1.0 | 5.0 | 0.00 | 0.00 | 0.00 | 52 | 1007.7 |
| 20260507160959 | 65 | 348 | 3.0 | 6.0 | 0.00 | 0.00 | 0.00 | 54 | 1007.9 |
| 20260507160455 | 65 | 58 | 4.0 | 6.0 | 0.00 | 0.00 | 0.00 | 54 | 1007.7 |
| 20260507155951 | 64 | 9 | 0.0 | 1.0 | 0.00 | 0.00 | 0.00 | 54 | 1007.7 |
| 20260507155447 | 63 | 226 | 5.0 | 6.0 | 0.00 | 0.00 | 0.00 | 55 | 1007.7 |
| 20260507154944 | 63 | 122 | 0.0 | 0.0 | 0.00 | 0.00 | 0.00 | 55 | 1008.2 |
| 20260507154441 | 63 | 69 | 3.0 | 3.0 | 0.00 | 0.00 | 0.00 | 55 | 1007.8 |
| 20260507153938 | 62 | 158 | 1.0 | 2.0 | 0.00 | 0.00 | 0.00 | 55 | 1007.8 |
| 20260507153435 | 62 | 187 | 2.0 | 2.0 | 0.00 | 0.00 | 0.00 | 56 | 1008.0 |
| 20260507152931 | 62 | 142 | 1.0 | 2.0 | 0.00 | 0.00 | 0.00 | 55 | 1008.0 |
| 20260507152427 | 61 | 141 | 0.0 | 0.0 | 0.00 | 0.00 | 0.00 | 56 | 1008.0 |
| 20260507151923 | 62 | 153 | 2.0 | 2.0 | 0.00 | 0.00 | 0.00 | 57 | 1007.9 |
| 20260507151420 | 60 | 60 | 0.0 | 0.0 | 0.00 | 0.00 | 0.00 | 59 | 1008.1 |
| 20260507150917 | 58 | 63 | 0.0 | 1.0 | 0.00 | 0.00 | 0.00 | 60 | 1008.2 |
| 20260507150414 | 58 | 103 | 0.0 | 0.0 | 0.00 | 0.00 | 0.00 | 61 | 1008.2 |
| 20260507145910 | 57 | 96 | 0.0 | 0.0 | 0.00 | 0.00 | 0.00 | 61 | 1008.2 |
| 20260507145406 | 57 | 340 | 2.0 | 2.0 | 0.00 | 0.00 | 0.00 | 60 | 1008.2 |
| 20260507144903 | 57 | 24 | 2.0 | 3.0 | 0.00 | 0.00 | 0.00 | 61 | 1008.2 |
| 20260507144400 | 57 | 306 | 6.0 | 8.0 | 0.00 | 0.00 | 0.00 | 61 | 1008.3 |
| 20260507143857 | 55 | 326 | 5.0 | 6.0 | 0.00 | 0.00 | 0.00 | 62 | 1008.2 |
| 20260507143354 | 54 | 303 | 5.0 | 7.0 | 0.00 | 0.00 | 0.00 | 62 | 1008.1 |
| 20260507142851 | 53 | 286 | 3.0 | 3.0 | 0.00 | 0.00 | 0.00 | 63 | 1008.7 |
| 20260507142347 | 52 | 328 | 3.0 | 5.0 | 0.00 | 0.00 | 0.00 | 63 | 1008.2 |
| 20260507141844 | 52 | 317 | 6.0 | 6.0 | 0.00 | 0.00 | 0.00 | 64 | 1008.3 |
| 20260507141340 | 51 | 305 | 6.0 | 7.0 | 0.00 | 0.00 | 0.00 | 64 | 1008.0 |
| 20260507140837 | 51 | 52 | 2.0 | 3.0 | 0.00 | 0.00 | 0.00 | 65 | 1008.0 |
| 20260507140334 | 50 | 318 | 3.0 | 5.0 | 0.00 | 0.00 | 0.00 | 65 | 1008.0 |
| 20260507135832 | 50 | 320 | 3.0 | 3.0 | 0.00 | 0.00 | 0.00 | 66 | 1007.9 |
| 20260507135328 | 49 | 19 | 1.0 | 2.0 | 0.00 | 0.00 | 0.00 | 67 | 1007.8 |
| 20260507134826 | 48 | 104 | 1.0 | 1.0 | 0.00 | 0.00 | 0.00 | 67 | 1007.9 |
| 20260507134322 | 48 | 109 | 0.0 | 0.0 | 0.00 | 0.00 | 0.00 | 67 | 1007.9 |
| 20260507133817 | 48 | 115 | 0.0 | 1.0 | 0.00 | 0.00 | 0.00 | 67 | 1007.8 |
| 20260507133313 | 47 | 112 | 0.0 | 0.0 | 0.00 | 0.00 | 0.00 | 68 | 1007.7 |
| 20260507132812 | 47 | 303 | 3.0 | 7.0 | 0.00 | 0.00 | 0.00 | 67 | 1008.0 |
| 20260507132308 | 46 | 114 | 0.0 | 0.0 | 0.00 | 0.00 | 0.00 | 69 | 1007.8 |
| 20260507131805 | 46 | 110 | 0.0 | 0.0 | 0.00 | 0.00 | 0.00 | 68 | 1007.9 |
| 20260507131302 | 46 | 20 | 2.0 | 2.0 | 0.00 | 0.00 | 0.00 | 68 | 1007.8 |
| 20260507130759 | 46 | 120 | 0.0 | 0.0 | 0.00 | 0.00 | 0.00 | 68 | 1007.5 |
| 20260507130256 | 44 | 121 | 0.0 | 0.0 | 0.00 | 0.00 | 0.00 | 69 | 1007.6 |
| 20260507125755 | 44 | 108 | 0.0 | 0.0 | 0.00 | 0.00 | 0.00 | 70 | 1007.5 |
| 20260507125252 | 43 | 110 | 0.0 | 1.0 | 0.00 | 0.00 | 0.00 | 70 | 1007.5 |
| 20260507124749 | 43 | 99 | 1.0 | 1.0 | 0.00 | 0.00 | 0.00 | 70 | 1007.5 |
| 20260507124245 | 42 | 103 | 0.0 | 1.0 | 0.00 | 0.00 | 0.00 | 69 | 1007.3 |
| 20260507123744 | 41 | 29 | 6.0 | 7.0 | 0.00 | 0.00 | 0.00 | 70 | 1007.2 |
| 20260507123241 | 41 | 97 | 1.0 | 2.0 | 0.00 | 0.00 | 0.00 | 70 | 1007.3 |
| 20260507122736 | 40 | 87 | 1.0 | 2.0 | 0.00 | 0.00 | 0.00 | 70 | 1006.9 |
| 20260507122232 | 40 | 112 | 1.0 | 2.0 | 0.00 | 0.00 | 0.00 | 69 | 1007.0 |
| 20260507121728 | 40 | 120 | 0.0 | 0.0 | 0.00 | 0.00 | 0.00 | 69 | 1007.1 |
| 20260507121224 | 40 | 93 | 1.0 | 2.0 | 0.00 | 0.00 | 0.00 | 69 | 1006.9 |
| 20260507120721 | 40 | 127 | 0.0 | 0.0 | 0.00 | 0.00 | 0.00 | 68 | 1006.9 |
| 20260507120218 | 41 | 113 | 0.0 | 0.0 | 0.00 | 0.00 | 0.00 | 67 | 1006.9 |
| 20260507115714 | 40 | 103 | 0.0 | 0.0 | 0.00 | 0.00 | 0.00 | 67 | 1006.9 |
| 20260507115210 | 41 | 124 | 0.0 | 0.0 | 0.00 | 0.00 | 0.00 | 67 | 1006.7 |
| 20260507114705 | 41 | 115 | 0.0 | 0.0 | 0.00 | 0.00 | 0.00 | 67 | 1006.8 |
| 20260507114203 | 41 | 123 | 0.0 | 0.0 | 0.00 | 0.00 | 0.00 | 67 | 1006.7 |
| 20260507113700 | 42 | 76 | 0.0 | 0.0 | 0.00 | 0.00 | 0.00 | 66 | 1006.7 |
| 20260507113157 | 42 | 95 | 0.0 | 0.0 | 0.00 | 0.00 | 0.00 | 67 | 1007.0 |
| 20260507112655 | 42 | 120 | 0.0 | 0.0 | 0.00 | 0.00 | 0.00 | 67 | 1006.7 |
| 20260507112152 | 43 | 113 | 0.0 | 0.0 | 0.00 | 0.00 | 0.00 | 67 | 1006.7 |
| 20260507111649 | 43 | 162 | 0.0 | 0.0 | 0.00 | 0.00 | 0.00 | 67 | 1006.6 |
| 20260507111145 | 43 | 21 | 4.0 | 5.0 | 0.00 | 0.00 | 0.00 | 66 | 1006.6 |
| 20260507110641 | 45 | 104 | 0.0 | 0.0 | 0.00 | 0.00 | 0.00 | 64 | 1006.3 |
| 20260507110138 | 45 | 206 | 3.0 | 3.0 | 0.00 | 0.00 | 0.00 | 63 | 1006.5 |
| 20260507105635 | 44 | 43 | 6.0 | 7.0 | 0.00 | 0.00 | 0.00 | 64 | 1006.6 |
| 20260507105131 | 44 | 285 | 2.0 | 2.0 | 0.00 | 0.00 | 0.00 | 65 | 1006.4 |
| 20260507104629 | 44 | 23 | 3.0 | 5.0 | 0.00 | 0.00 | 0.00 | 66 | 1006.4 |
| 20260507104125 | 43 | 24 | 5.0 | 6.0 | 0.00 | 0.00 | 0.00 | 67 | 1006.5 |
| 20260507103621 | 41 | 8 | 12.0 | 13.0 | 0.00 | 0.00 | 0.00 | 70 | 1006.3 |
| 20260507103118 | 42 | 89 | 1.0 | 2.0 | 0.00 | 0.00 | 0.00 | 69 | 1006.1 |
| 20260507102614 | 41 | 171 | 1.0 | 1.0 | 0.00 | 0.00 | 0.00 | 69 | 1006.0 |
| 20260507102111 | 41 | 231 | 5.0 | 6.0 | 0.00 | 0.00 | 0.00 | 68 | 1005.9 |
| 20260507101607 | 41 | 210 | 3.0 | 3.0 | 0.00 | 0.00 | 0.00 | 69 | 1006.0 |
| 20260507101103 | 41 | 206 | 3.0 | 3.0 | 0.00 | 0.00 | 0.00 | 69 | 1006.0 |
| 20260507100600 | 41 | 156 | 0.0 | 0.0 | 0.00 | 0.00 | 0.00 | 69 | 1006.3 |
| 20260507100058 | 41 | 164 | 1.0 | 1.0 | 0.00 | 0.00 | 0.00 | 69 | 1006.6 |
| 20260507095556 | 41 | 126 | 0.0 | 0.0 | 0.00 | 0.00 | 0.00 | 69 | 1006.5 |
| 20260507095052 | 42 | 118 | 0.0 | 0.0 | 0.00 | 0.00 | 0.00 | 68 | 1006.4 |
| 20260507094548 | 43 | 141 | 0.0 | 1.0 | 0.00 | 0.00 | 0.00 | 67 | 1006.3 |
| 20260507094046 | 43 | 116 | 0.0 | 0.0 | 0.00 | 0.00 | 0.00 | 67 | 1006.0 |
| 20260507093543 | 42 | 103 | 0.0 | 0.0 | 0.00 | 0.00 | 0.00 | 68 | 1005.7 |
| 20260507093042 | 43 | 112 | 0.0 | 0.0 | 0.00 | 0.00 | 0.00 | 67 | 1006.0 |
| 20260507092537 | 41 | 119 | 0.0 | 0.0 | 0.00 | 0.00 | 0.00 | 68 | 1005.7 |
| 20260507092034 | 41 | 115 | 0.0 | 0.0 | 0.00 | 0.00 | 0.00 | 67 | 1006.0 |
| 20260507091531 | 41 | 108 | 0.0 | 0.0 | 0.00 | 0.00 | 0.00 | 66 | 1005.9 |
| 20260507091028 | 42 | 110 | 0.0 | 0.0 | 0.00 | 0.00 | 0.00 | 66 | 1005.9 |
| 20260507090523 | 42 | 94 | 0.0 | 0.0 | 0.00 | 0.00 | 0.00 | 66 | 1005.4 |
| 20260507090020 | 42 | 27 | 3.0 | 3.0 | 0.00 | 0.00 | 0.00 | 64 | 1005.7 |
| 20260507085517 | 43 | 22 | 3.0 | 3.0 | 0.00 | 0.00 | 0.00 | 64 | 1005.6 |
| 20260507085014 | 44 | 14 | 2.0 | 2.0 | 0.00 | 0.00 | 0.00 | 63 | 1005.6 |
| 20260507084511 | 45 | 300 | 2.0 | 2.0 | 0.00 | 0.00 | 0.00 | 63 | 1005.4 |
| 20260507084008 | 45 | 105 | 0.0 | 1.0 | 0.00 | 0.00 | 0.00 | 61 | 1005.3 |
| 20260507083504 | 45 | 6 | 1.0 | 2.0 | 0.00 | 0.00 | 0.00 | 62 | 1005.3 |
| 20260507083001 | 44 | 275 | 5.0 | 6.0 | 0.00 | 0.00 | 0.00 | 62 | 1005.3 |
| 20260507082457 | 44 | 65 | 0.0 | 0.0 | 0.00 | 0.00 | 0.00 | 63 | 1005.2 |
| 20260507081953 | 44 | 116 | 0.0 | 0.0 | 0.00 | 0.00 | 0.00 | 63 | 1005.3 |
| 20260507081449 | 45 | 72 | 0.0 | 0.0 | 0.00 | 0.00 | 0.00 | 63 | 1005.2 |
| 20260507080947 | 46 | 111 | 0.0 | 0.0 | 0.00 | 0.00 | 0.00 | 61 | 1005.2 |
| 20260507080443 | 46 | 44 | 3.0 | 3.0 | 0.00 | 0.00 | 0.00 | 62 | 1005.1 |
| 20260507075938 | 46 | 76 | 0.0 | 0.0 | 0.00 | 0.00 | 0.00 | 61 | 1004.9 |
| 20260507075435 | 47 | 84 | 0.0 | 0.0 | 0.00 | 0.00 | 0.00 | 61 | 1004.8 |
| 20260507074931 | 48 | 103 | 0.0 | 0.0 | 0.00 | 0.00 | 0.00 | 59 | 1004.8 |
| 20260507074428 | 50 | 81 | 0.0 | 0.0 | 0.00 | 0.00 | 0.00 | 58 | 1004.9 |
| 20260507073926 | 50 | 111 | 5.0 | 5.0 | 0.00 | 0.00 | 0.00 | 57 | 1004.7 |
| 20260507073422 | 51 | 84 | 1.0 | 2.0 | 0.00 | 0.00 | 0.00 | 56 | 1004.7 |
| 20260507072919 | 51 | 117 | 3.0 | 5.0 | 0.00 | 0.00 | 0.00 | 56 | 1004.9 |
| 20260507072416 | 52 | 112 | 1.0 | 2.0 | 0.00 | 0.00 | 0.00 | 55 | 1004.8 |
| 20260507071914 | 52 | 40 | 3.0 | 3.0 | 0.00 | 0.00 | 0.00 | 55 | 1004.7 |
| 20260507071411 | 52 | 111 | 9.0 | 9.0 | 0.00 | 0.00 | 0.00 | 54 | 1004.7 |
| 20260507070907 | 52 | 9 | 4.0 | 6.0 | 0.00 | 0.00 | 0.00 | 53 | 1005.1 |
| 20260507070405 | 52 | 95 | 0.0 | 1.0 | 0.00 | 0.00 | 0.00 | 52 | 1004.9 |
| 20260507065901 | 53 | 35 | 1.0 | 2.0 | 0.00 | 0.00 | 0.00 | 51 | 1004.7 |
| 20260507065358 | 54 | 70 | 3.0 | 3.0 | 0.00 | 0.00 | 0.00 | 49 | 1004.7 |
| 20260507064855 | 55 | 134 | 5.0 | 6.0 | 0.00 | 0.00 | 0.00 | 47 | 1004.6 |
| 20260507064353 | 55 | 123 | 3.0 | 5.0 | 0.00 | 0.00 | 0.00 | 46 | 1004.5 |
| 20260507063851 | 55 | 37 | 6.0 | 7.0 | 0.00 | 0.00 | 0.00 | 45 | 1004.5 |
| 20260507063348 | 56 | 86 | 0.0 | 0.0 | 0.00 | 0.00 | 0.00 | 44 | 1004.7 |
| 20260507062845 | 57 | 29 | 10.0 | 11.0 | 0.00 | 0.00 | 0.00 | 45 | 1004.4 |
| 20260507062341 | 57 | 61 | 6.0 | 10.0 | 0.00 | 0.00 | 0.00 | 43 | 1004.1 |
| 20260507061839 | 57 | 37 | 13.0 | 20.0 | 0.00 | 0.00 | 0.00 | 42 | 1004.1 |
| 20260507061337 | 58 | 55 | 12.0 | 15.0 | 0.00 | 0.00 | 0.00 | 41 | 1004.1 |
| 20260507060835 | 58 | 42 | 15.0 | 17.0 | 0.00 | 0.00 | 0.00 | 41 | 1004.5 |
| 20260507060332 | 58 | 27 | 12.0 | 15.0 | 0.00 | 0.00 | 0.00 | 40 | 1004.1 |
| 20260507055828 | 58 | 69 | 11.0 | 16.0 | 0.00 | 0.00 | 0.00 | 39 | 1003.9 |
| 20260507055323 | 59 | 70 | 6.0 | 9.0 | 0.00 | 0.00 | 0.00 | 38 | 1003.5 |
| 20260507054820 | 59 | 104 | 9.0 | 11.0 | 0.00 | 0.00 | 0.00 | 38 | 1003.2 |
| 20260507054316 | 59 | 74 | 8.0 | 13.0 | 0.00 | 0.00 | 0.00 | 38 | 1003.4 |
| 20260507053814 | 59 | 92 | 12.0 | 17.0 | 0.00 | 0.00 | 0.00 | 37 | 1003.4 |
| 20260507053312 | 59 | 98 | 10.0 | 13.0 | 0.00 | 0.00 | 0.00 | 37 | 1003.4 |
| 20260507052811 | 59 | 79 | 8.0 | 13.0 | 0.00 | 0.00 | 0.00 | 37 | 1003.3 |
| 20260507052307 | 59 | 105 | 11.0 | 14.0 | 0.00 | 0.00 | 0.00 | 37 | 1003.0 |
| 20260507051805 | 59 | 95 | 10.0 | 13.0 | 0.00 | 0.00 | 0.00 | 37 | 1003.1 |
| 20260507051302 | 60 | 88 | 6.0 | 8.0 | 0.00 | 0.00 | 0.00 | 38 | 1003.2 |
| 20260507050758 | 60 | 92 | 9.0 | 11.0 | 0.00 | 0.00 | 0.00 | 38 | 1003.2 |
| 20260507050254 | 60 | 96 | 2.0 | 2.0 | 0.00 | 0.00 | 0.00 | 41 | 1003.1 |
| 20260507045751 | 60 | 85 | 1.0 | 1.0 | 0.00 | 0.00 | 0.00 | 42 | 1003.1 |
| 20260507045247 | 60 | 133 | 0.0 | 0.0 | 0.00 | 0.00 | 0.00 | 43 | 1002.9 |
| 20260507044745 | 60 | 133 | 0.0 | 0.0 | 0.00 | 0.00 | 0.00 | 42 | 1002.8 |
| 20260507044242 | 61 | 140 | 1.0 | 1.0 | 0.00 | 0.00 | 0.00 | 41 | 1003.1 |
| 20260507043738 | 62 | 141 | 1.0 | 2.0 | 0.00 | 0.00 | 0.00 | 41 | 1002.9 |
| 20260507043235 | 62 | 137 | 0.0 | 0.0 | 0.00 | 0.00 | 0.00 | 40 | 1002.8 |
| 20260507042731 | 62 | 137 | 1.0 | 1.0 | 0.00 | 0.00 | 0.00 | 41 | 1002.9 |
| 20260507042226 | 63 | 165 | 5.0 | 6.0 | 0.00 | 0.00 | 0.00 | 41 | 1002.7 |
| 20260507041724 | 63 | 147 | 3.0 | 5.0 | 0.00 | 0.00 | 0.00 | 40 | 1003.0 |
| 20260507041220 | 64 | 152 | 3.0 | 3.0 | 0.00 | 0.00 | 0.00 | 40 | 1003.1 |
| 20260507040717 | 64 | 166 | 3.0 | 3.0 | 0.00 | 0.00 | 0.00 | 39 | 1002.9 |
| 20260507040213 | 64 | 153 | 5.0 | 6.0 | 0.00 | 0.00 | 0.00 | 39 | 1002.8 |
| 20260507035709 | 64 | 143 | 3.0 | 5.0 | 0.00 | 0.00 | 0.00 | 39 | 1003.0 |
| 20260507035205 | 64 | 146 | 5.0 | 6.0 | 0.00 | 0.00 | 0.00 | 40 | 1003.1 |
| 20260507034702 | 63 | 139 | 6.0 | 7.0 | 0.00 | 0.00 | 0.00 | 39 | 1003.0 |
| 20260507034200 | 64 | 134 | 8.0 | 8.0 | 0.00 | 0.00 | 0.00 | 39 | 1003.2 |
| 20260507033658 | 65 | 162 | 2.0 | 2.0 | 0.00 | 0.00 | 0.00 | 39 | 1003.7 |
| 20260507033155 | 66 | 207 | 3.0 | 3.0 | 0.00 | 0.00 | 0.00 | 38 | 1003.6 |
| 20260507032652 | 65 | 199 | 5.0 | 5.0 | 0.00 | 0.00 | 0.00 | 39 | 1003.6 |
| 20260507032148 | 64 | 279 | 3.0 | 6.0 | 0.00 | 0.00 | 0.00 | 39 | 1003.9 |
| 20260507031645 | 62 | 348 | 4.0 | 7.0 | 0.00 | 0.00 | 0.00 | 40 | 1003.9 |
| 20260507031141 | 63 | 107 | 0.0 | 0.0 | 0.00 | 0.00 | 0.00 | 37 | 1003.7 |
| 20260507030638 | 63 | 108 | 0.0 | 0.0 | 0.00 | 0.00 | 0.00 | 36 | 1003.1 |
| 20260507030136 | 63 | 111 | 0.0 | 0.0 | 0.00 | 0.00 | 0.00 | 36 | 1002.9 |
| 20260507025633 | 63 | 125 | 0.0 | 0.0 | 0.00 | 0.00 | 0.00 | 36 | 1003.0 |
| 20260507025130 | 64 | 124 | 1.0 | 1.0 | 0.00 | 0.00 | 0.00 | 35 | 1003.1 |
| 20260507024628 | 65 | 115 | 3.0 | 3.0 | 0.00 | 0.00 | 0.00 | 34 | 1002.7 |
| 20260507024125 | 66 | 114 | 5.0 | 6.0 | 0.00 | 0.00 | 0.00 | 34 | 1002.9 |
| 20260507023620 | 66 | 101 | 2.0 | 2.0 | 0.00 | 0.00 | 0.00 | 33 | 1002.7 |
| 20260507023118 | 66 | 90 | 0.0 | 2.0 | 0.00 | 0.00 | 0.00 | 34 | 1002.8 |
| 20260507022615 | 67 | 69 | 2.0 | 2.0 | 0.00 | 0.00 | 0.00 | 34 | 1002.4 |
| 20260507022110 | 67 | 88 | 3.0 | 3.0 | 0.00 | 0.00 | 0.00 | 33 | 1002.5 |
| 20260507021607 | 68 | 54 | 4.0 | 6.0 | 0.00 | 0.00 | 0.00 | 32 | 1002.5 |
| 20260507021103 | 68 | 53 | 4.0 | 5.0 | 0.00 | 0.00 | 0.00 | 32 | 1002.4 |
| 20260507020602 | 68 | 40 | 3.0 | 5.0 | 0.00 | 0.00 | 0.00 | 32 | 1002.4 |
| 20260507020057 | 69 | 30 | 4.0 | 5.0 | 0.00 | 0.00 | 0.00 | 32 | 1002.4 |
| 20260507015556 | 69 | 32 | 3.0 | 3.0 | 0.00 | 0.00 | 0.00 | 31 | 1002.4 |
| 20260507015053 | 70 | 62 | 2.0 | 2.0 | 0.00 | 0.00 | 0.00 | 31 | 1002.5 |
| 20260507014549 | 70 | 32 | 5.0 | 6.0 | 0.00 | 0.00 | 0.00 | 30 | 1002.5 |
| 20260507014045 | 70 | 20 | 3.0 | 3.0 | 0.00 | 0.00 | 0.00 | 30 | 1002.3 |
| 20260507013542 | 70 | 66 | 3.0 | 3.0 | 0.00 | 0.00 | 0.00 | 31 | 1002.5 |
| 20260507013039 | 70 | 43 | 4.0 | 5.0 | 0.00 | 0.00 | 0.00 | 30 | 1002.7 |
| 20260507012536 | 70 | 59 | 2.0 | 3.0 | 0.00 | 0.00 | 0.00 | 30 | 1002.7 |
| 20260507012032 | 70 | 111 | 0.0 | 0.0 | 0.00 | 0.00 | 0.00 | 30 | 1002.7 |
| 20260507011530 | 71 | 130 | 0.0 | 1.0 | 0.00 | 0.00 | 0.00 | 30 | 1002.8 |
| 20260507011026 | 71 | 323 | 2.0 | 3.0 | 0.00 | 0.00 | 0.00 | 30 | 1002.9 |
| 20260507010520 | 71 | 91 | 2.0 | 2.0 | 0.00 | 0.00 | 0.00 | 30 | 1002.9 |
| 20260507010017 | 71 | 16 | 4.0 | 6.0 | 0.00 | 0.00 | 0.00 | 30 | 1002.4 |
| 20260507005515 | 73 | 120 | 0.0 | 0.0 | 0.00 | 0.00 | 0.00 | 29 | 1002.5 |
| 20260507005011 | 74 | 69 | 2.0 | 3.0 | 0.00 | 0.00 | 0.00 | 29 | 1002.8 |
| 20260507004508 | 74 | 15 | 5.0 | 8.0 | 0.00 | 0.00 | 0.00 | 28 | 1003.0 |
| 20260507004006 | 73 | 41 | 1.0 | 2.0 | 0.00 | 0.00 | 0.00 | 29 | 1003.1 |
| 20260507003501 | 72 | 115 | 0.0 | 0.0 | 0.00 | 0.00 | 0.00 | 29 | 1002.8 |
| 20260507002955 | 72 | 105 | 4.0 | 5.0 | 0.00 | 0.00 | 0.00 | 29 | 1002.9 |
| 20260507002453 | 72 | 124 | 0.0 | 0.0 | 0.00 | 0.00 | 0.00 | 29 | 1002.9 |
| 20260507001949 | 71 | 96 | 1.0 | 2.0 | 0.00 | 0.00 | 0.00 | 30 | 1003.1 |
| 20260507001446 | 71 | 86 | 0.0 | 1.0 | 0.00 | 0.00 | 0.00 | 29 | 1002.9 |
| 20260507000944 | 71 | 92 | 1.0 | 2.0 | 0.00 | 0.00 | 0.00 | 29 | 1002.9 |
| 20260507000439 | 71 | 98 | 0.0 | 1.0 | 0.00 | 0.00 | 0.00 | 30 | 1002.9 |
| 20260506235934 | 72 | 94 | 1.0 | 2.0 | 0.00 | 0.00 | 0.00 | 28 | 1003.0 |
| 20260506235432 | 71 | 36 | 4.0 | 5.0 | 0.00 | 0.00 | 0.00 | 29 | 1003.0 |
| 20260506234927 | 72 | 129 | 1.0 | 2.0 | 0.00 | 0.00 | 0.00 | 30 | 1003.0 |
| 20260506234426 | 72 | 153 | 1.0 | 2.0 | 0.00 | 0.00 | 0.00 | 29 | 1003.2 |
| 20260506233923 | 72 | 103 | 1.0 | 2.0 | 0.00 | 0.00 | 0.00 | 29 | 1002.9 |
| 20260506233419 | 70 | 65 | 1.0 | 2.0 | 0.00 | 0.00 | 0.00 | 29 | 1003.3 |
| 20260506232916 | 71 | 94 | 1.0 | 2.0 | 0.00 | 0.00 | 0.00 | 30 | 1003.1 |
| 20260506232412 | 71 | 106 | 3.0 | 3.0 | 0.00 | 0.00 | 0.00 | 29 | 1003.2 |
| 20260506231908 | 71 | 110 | 1.0 | 1.0 | 0.00 | 0.00 | 0.00 | 29 | 1003.3 |
| 20260506231406 | 71 | 347 | 1.0 | 2.0 | 0.00 | 0.00 | 0.00 | 30 | 1003.4 |
| 20260506230903 | 71 | 154 | 0.0 | 0.0 | 0.00 | 0.00 | 0.00 | 29 | 1003.5 |
| 20260506230400 | 70 | 158 | 1.0 | 2.0 | 0.00 | 0.00 | 0.00 | 30 | 1003.6 |
| 20260506225856 | 70 | 172 | 4.0 | 5.0 | 0.00 | 0.00 | 0.00 | 29 | 1003.6 |
| 20260506225353 | 71 | 152 | 0.0 | 0.0 | 0.00 | 0.00 | 0.00 | 29 | 1003.7 |
| 20260506224850 | 70 | 169 | 2.0 | 2.0 | 0.00 | 0.00 | 0.00 | 30 | 1003.7 |
| 20260506224348 | 71 | 229 | 6.0 | 7.0 | 0.00 | 0.00 | 0.00 | 30 | 1003.7 |
| 20260506223844 | 71 | 15 | 4.0 | 5.0 | 0.00 | 0.00 | 0.00 | 29 | 1003.6 |
| 20260506223339 | 69 | 121 | 0.0 | 0.0 | 0.00 | 0.00 | 0.00 | 30 | 1004.1 |
| 20260506222836 | 69 | 111 | 3.0 | 3.0 | 0.00 | 0.00 | 0.00 | 30 | 1004.0 |
| 20260506222331 | 72 | 320 | 3.0 | 5.0 | 0.00 | 0.00 | 0.00 | 29 | 1004.1 |
| 20260506221824 | 71 | 280 | 4.0 | 5.0 | 0.00 | 0.00 | 0.00 | 30 | 1004.4 |
| 20260506221321 | 70 | 120 | 1.0 | 2.0 | 0.00 | 0.00 | 0.00 | 30 | 1004.3 |
| 20260506220819 | 72 | 16 | 2.0 | 7.0 | 0.00 | 0.00 | 0.00 | 30 | 1004.5 |
| 20260506220314 | 72 | 68 | 1.0 | 1.0 | 0.00 | 0.00 | 0.00 | 29 | 1004.5 |
| 20260506215810 | 71 | 56 | 4.0 | 6.0 | 0.00 | 0.00 | 0.00 | 29 | 1004.7 |
| 20260506215306 | 71 | 111 | 1.0 | 1.0 | 0.00 | 0.00 | 0.00 | 30 | 1004.6 |
| 20260506214803 | 70 | 186 | 1.0 | 2.0 | 0.00 | 0.00 | 0.00 | 30 | 1004.6 |
| 20260506214259 | 69 | 330 | 7.0 | 8.0 | 0.00 | 0.00 | 0.00 | 32 | 1004.9 |
| 20260506213758 | 68 | 335 | 5.0 | 6.0 | 0.00 | 0.00 | 0.00 | 31 | 1004.9 |
| 20260506213254 | 68 | 257 | 4.0 | 5.0 | 0.00 | 0.00 | 0.00 | 32 | 1004.9 |
| 20260506212752 | 69 | 259 | 6.0 | 8.0 | 0.00 | 0.00 | 0.00 | 31 | 1005.1 |
| 20260506212247 | 68 | 315 | 9.0 | 10.0 | 0.00 | 0.00 | 0.00 | 31 | 1005.2 |
| 20260506211743 | 68 | 278 | 3.0 | 5.0 | 0.00 | 0.00 | 0.00 | 32 | 1005.3 |
| 20260506211239 | 68 | 328 | 9.0 | 10.0 | 0.00 | 0.00 | 0.00 | 31 | 1005.4 |
| 20260506210736 | 68 | 1 | 4.0 | 5.0 | 0.00 | 0.00 | 0.00 | 32 | 1005.4 |
| 20260506210233 | 69 | 288 | 11.0 | 14.0 | 0.00 | 0.00 | 0.00 | 31 | 1005.6 |
| 20260506205730 | 68 | 163 | 4.0 | 7.0 | 0.00 | 0.00 | 0.00 | 33 | 1005.5 |
| 20260506205226 | 68 | 293 | 7.0 | 9.0 | 0.00 | 0.00 | 0.00 | 32 | 1005.6 |
| 20260506204723 | 67 | 327 | 2.0 | 5.0 | 0.00 | 0.00 | 0.00 | 34 | 1005.7 |
| 20260506204220 | 66 | 165 | 1.0 | 2.0 | 0.00 | 0.00 | 0.00 | 33 | 1005.6 |
| 20260506203719 | 66 | 172 | 4.0 | 5.0 | 0.00 | 0.00 | 0.00 | 34 | 1005.8 |
| 20260506203215 | 65 | 266 | 8.0 | 9.0 | 0.00 | 0.00 | 0.00 | 34 | 1006.0 |
| 20260506202713 | 64 | 304 | 3.0 | 6.0 | 0.00 | 0.00 | 0.00 | 35 | 1005.9 |
| 20260506202209 | 64 | 193 | 4.0 | 5.0 | 0.00 | 0.00 | 0.00 | 35 | 1006.1 |
| 20260506201706 | 65 | 297 | 10.0 | 11.0 | 0.00 | 0.00 | 0.00 | 35 | 1006.0 |
| 20260506201203 | 64 | 232 | 15.0 | 17.0 | 0.00 | 0.00 | 0.00 | 35 | 1006.4 |
| 20260506200659 | 63 | 165 | 1.0 | 1.0 | 0.00 | 0.00 | 0.00 | 35 | 1006.4 |
| 20260506200156 | 63 | 171 | 1.0 | 2.0 | 0.00 | 0.00 | 0.00 | 35 | 1006.1 |
| 20260506195653 | 64 | 206 | 8.0 | 9.0 | 0.00 | 0.00 | 0.00 | 35 | 1006.5 |
| 20260506195149 | 64 | 189 | 0.0 | 1.0 | 0.00 | 0.00 | 0.00 | 36 | 1006.6 |
| 20260506194647 | 62 | 271 | 6.0 | 7.0 | 0.00 | 0.00 | 0.00 | 35 | 1006.7 |
| 20260506194143 | 63 | 299 | 11.0 | 14.0 | 0.00 | 0.00 | 0.00 | 35 | 1006.9 |
| 20260506193641 | 62 | 221 | 3.0 | 3.0 | 0.00 | 0.00 | 0.00 | 37 | 1006.8 |
| 20260506193138 | 61 | 201 | 5.0 | 6.0 | 0.00 | 0.00 | 0.00 | 37 | 1007.1 |
| 20260506192634 | 62 | 285 | 12.0 | 13.0 | 0.00 | 0.00 | 0.00 | 36 | 1007.1 |
| 20260506192130 | 61 | 197 | 8.0 | 9.0 | 0.00 | 0.00 | 0.00 | 37 | 1007.0 |
| 20260506191627 | 61 | 166 | 4.0 | 5.0 | 0.00 | 0.00 | 0.00 | 36 | 1007.1 |
| 20260506191123 | 61 | 249 | 5.0 | 6.0 | 0.00 | 0.00 | 0.00 | 37 | 1007.2 |
| 20260506190621 | 60 | 197 | 6.0 | 7.0 | 0.00 | 0.00 | 0.00 | 35 | 1007.3 |
| 20260506190118 | 60 | 179 | 9.0 | 10.0 | 0.00 | 0.00 | 0.00 | 35 | 1007.6 |
| 20260506185615 | 60 | 271 | 4.0 | 5.0 | 0.00 | 0.00 | 0.00 | 35 | 1007.8 |
| 20260506185111 | 60 | 196 | 6.0 | 7.0 | 0.00 | 0.00 | 0.00 | 34 | 1007.7 |
| 20260506184609 | 59 | 263 | 7.0 | 9.0 | 0.00 | 0.00 | 0.00 | 34 | 1008.0 |
| 20260506184106 | 60 | 215 | 7.0 | 8.0 | 0.00 | 0.00 | 0.00 | 34 | 1008.0 |
| 20260506183602 | 60 | 225 | 7.0 | 8.0 | 0.00 | 0.00 | 0.00 | 34 | 1008.1 |
| 20260506183058 | 58 | 207 | 4.0 | 6.0 | 0.00 | 0.00 | 0.00 | 35 | 1008.1 |
| 20260506182556 | 59 | 254 | 7.0 | 9.0 | 0.00 | 0.00 | 0.00 | 35 | 1008.2 |
| 20260506182053 | 58 | 232 | 8.0 | 10.0 | 0.00 | 0.00 | 0.00 | 34 | 1008.6 |
| 20260506181551 | 58 | 181 | 9.0 | 9.0 | 0.00 | 0.00 | 0.00 | 33 | 1008.6 |
| 20260506181047 | 57 | 194 | 6.0 | 7.0 | 0.00 | 0.00 | 0.00 | 33 | 1008.6 |
| 20260506180544 | 57 | 203 | 6.0 | 6.0 | 0.00 | 0.00 | 0.00 | 34 | 1008.8 |
| 20260506180040 | 57 | 165 | 9.0 | 9.0 | 0.00 | 0.00 | 0.00 | 33 | 1008.9 |
| 20260506175537 | 57 | 203 | 5.0 | 6.0 | 0.00 | 0.00 | 0.00 | 33 | 1008.8 |
| 20260506175033 | 56 | 209 | 3.0 | 5.0 | 0.00 | 0.00 | 0.00 | 33 | 1009.0 |
| 20260506174532 | 55 | 176 | 9.0 | 9.0 | 0.00 | 0.00 | 0.00 | 34 | 1009.1 |
| 20260506174028 | 55 | 169 | 3.0 | 3.0 | 0.00 | 0.00 | 0.00 | 36 | 1009.0 |
| 20260506173526 | 55 | 199 | 7.0 | 7.0 | 0.00 | 0.00 | 0.00 | 39 | 1009.3 |
| 20260506173022 | 55 | 193 | 5.0 | 6.0 | 0.00 | 0.00 | 0.00 | 35 | 1009.4 |
| 20260506172520 | 55 | 213 | 7.0 | 8.0 | 0.00 | 0.00 | 0.00 | 39 | 1009.3 |
| 20260506172016 | 55 | 186 | 7.0 | 8.0 | 0.00 | 0.00 | 0.00 | 38 | 1009.4 |
| 20260506171513 | 54 | 184 | 4.0 | 5.0 | 0.00 | 0.00 | 0.00 | 42 | 1009.6 |